Home > Weather > Ilio > Past weeks

Flag for Greece Weather for the Past 2 Weeks in Ilio, Greece

Now
55 °F

Partly sunny.


Feels Like: 55 °F
Forecast: 53 / 68 °F
Wind: No wind

Location: Elefsis Airport

Current Time: Feb 12, 2016 at 10:27:03 AM

Latest Report: Feb 12, 2016 at 9:50 AM


Visibility: N/A

Pressure: 29.95 "Hg

Humidity: 82%

Dew point: 50 °F

Location of IlioLocation

Historic Weather in Ilio — Graph

°F

Ilio Temperature Yesterday

Maximum temperature yesterday: 68 °F (at 12:50 PM)
Minimum temperature yesterday: 48 °F (at 9:20 PM)
Average temperature yesterday: 58 °F

High & Low Weather Summary for the Past Weeks

 TemperatureHumidityPressure
High70 °F (Feb 2, 11:20 AM)94% (Feb 5, 4:50 AM)30.42 "Hg (Feb 5, 4:50 AM)
Low34 °F (Feb 7, 4:50 AM)26% (Feb 11, 12:50 PM)29.71 "Hg (Feb 11, 1:50 AM)
Average51 °F71%30.17 "Hg
* Reported Jan 28 8:20 AM — Feb 12 8:50 AM, Ilio, Weather by CustomWeather, © 2016

Note: Actual official high and low records may vary slightly from our data, if they occured in-between our weather recording intervals... More about our weather records

Advertising

Ilio Weather History for the Previous 24 Hours

 ConditionsComfort  
Time TempWeatherWind HumidityBarometerVisibility
8:50 AM
Fri, Feb 12
54 °FBroken clouds.No wind82%29.95 "HgN/A
8:20 AM52 °FPartly sunny.3 mph82%29.95 "HgN/A
7:50 AM52 °FPartly sunny.3 mph82%29.92 "HgN/A
7:20 AM50 °FScattered clouds.5 mph88%29.92 "HgN/A
6:50 AM50 °FPassing clouds.No wind82%29.92 "HgN/A
6:20 AM50 °FPassing clouds.5 mph82%29.92 "HgN/A
5:50 AM52 °FPassing clouds.5 mph77%29.92 "HgN/A
5:20 AM52 °FPassing clouds.No wind82%29.89 "HgN/A
4:20 AM48 °FPassing clouds.5 mph87%29.89 "HgN/A
3:50 AM50 °FPassing clouds.7 mph82%29.89 "HgN/A
3:20 AM50 °FPassing clouds.No wind82%29.89 "HgN/A
2:50 AM50 °FPassing clouds.No wind82%29.89 "HgN/A
2:20 AM52 °FPassing clouds.No wind77%29.89 "HgN/A
1:50 AM54 °FPassing clouds.No wind72%29.92 "HgN/A
1:20 AM55 °FPassing clouds.No wind67%29.92 "HgN/A
12:50 AM54 °FPassing clouds.No wind72%29.92 "HgN/A
11:20 PM
Thu, Feb 11
50 °FPassing clouds.No wind82%29.92 "HgN/A
10:50 PM50 °FPassing clouds.No wind82%29.92 "HgN/A
10:20 PM48 °FPassing clouds.No wind87%29.92 "HgN/A
9:50 PM48 °FPassing clouds.No wind82%29.92 "HgN/A
9:20 PM48 °FPassing clouds.No wind82%29.92 "HgN/A
8:50 PM50 °FPassing clouds.No wind76%29.92 "HgN/A
8:20 PM50 °FPassing clouds.No wind76%29.92 "HgN/A
7:50 PM52 °FPassing clouds.No wind77%29.92 "HgN/A
7:20 PM52 °FPassing clouds.No wind77%29.89 "HgN/A
6:50 PM55 °FPassing clouds.No wind67%29.92 "HgN/A
6:20 PM57 °FPassing clouds.No wind67%29.89 "HgN/A
5:50 PM57 °FPassing clouds.No wind59%29.89 "HgN/A
5:20 PM61 °FPassing clouds.5 mph52%29.89 "HgN/A
4:50 PM64 °FPassing clouds.6 mph43%29.89 "HgN/A
4:20 PM64 °FPassing clouds.7 mph40%29.89 "HgN/A
3:50 PM64 °FScattered clouds.8 mph40%29.89 "HgN/A
3:20 PM66 °FScattered clouds.9 mph37%29.86 "HgN/A
2:50 PM66 °FPassing clouds.10 mph37%29.86 "HgN/A
2:20 PM68 °FPassing clouds.6 mph33%29.86 "HgN/A
1:50 PM68 °FPassing clouds.7 mph30%29.89 "HgN/A
1:20 PM66 °FPassing clouds.6 mph30%29.89 "HgN/A
12:50 PM68 °FPassing clouds.9 mph26%29.89 "HgN/A
12:20 PM66 °FPassing clouds.7 mph30%29.89 "HgN/A
11:50 AM66 °FPassing clouds.8 mph30%29.89 "HgN/A
11:20 AM64 °FPassing clouds.7 mph34%29.89 "HgN/A
10:50 AM64 °FPassing clouds.10 mph34%29.89 "HgN/A
10:20 AM64 °FPassing clouds.5 mph37%29.89 "HgN/A
Weather by CustomWeather, © 2016

See weather overviewHow to use our weather pages